[[{"header":{"parameterUnit":"m.s-1","parameterCategory":1,"la1":30.2991,"la2":30.254,"lo1":-89.0895,"lo2":-89.0444,"dy":0.0017,"dx":0.0017,"nx":28,"ny":28,"refTime":"2024-06-13T09:00:00:Z","depth":0,"parameterNumber":2,"parameterNumberName":"U-component_of_WINDS"},"data":[0,0,0,0,0,0,0,0,0,0,0,0,0,0,0,0,0,0,0,0,0,0,0,0,0,0,0,0,0,0,0,0,0,0,0,0,0,0,0,0,0,0,0,0,0,0,0,0,0,0,0,0,0,0,0,0,0,0,-0.5448,-0.5448,0,-0.543,-0.543,-0.543,-0.5424,-0.5424,-0.5424,-0.5424,-0.5404,-0.5404,-0.5403,0,0,0,0,0,0,0,0,0,0,0,0,0,-0.5476,-0.5476,-0.5448,-0.5448,-0.5448,-0.543,-0.543,-0.543,-0.5424,-0.5424,-0.5424,-0.5425,-0.5405,-0.5404,-0.5403,0,0,0,0,0,0,0,0,0,0,0,0,0,-0.5462,-0.5476,-0.5448,-0.5443,-0.5442,-0.543,-0.543,-0.543,-0.5424,-0.5424,-0.5424,-0.5425,-0.5405,-0.5404,-0.5403,-0.5395,0,0,-0.54,-0.54,0,0,0,0,0,0,0,0,-0.5463,-0.5461,-0.5444,-0.5443,-0.5442,-0.543,-0.5433,-0.5418,-0.5424,-0.5431,-0.5424,-0.5425,-0.5413,-0.5411,-0.5407,-0.5394,-0.5393,-0.54,-0.54,-0.5399,-0.5399,0,0,0,0,0,0,0,-0.5464,-0.5461,-0.5441,-0.5444,-0.5443,-0.5441,-0.5439,-0.543,-0.5421,-0.543,-0.543,-0.5428,-0.5412,-0.5408,-0.5407,-0.5393,-0.54,-0.5399,-0.5399,-0.5399,-0.5372,-0.5372,0,0,0,0,0,0,-0.5466,-0.5462,-0.5442,-0.5441,-0.5453,-0.544,-0.5438,-0.5434,-0.5421,-0.542,-0.5428,-0.5428,-0.541,-0.5408,-0.5406,-0.5396,-0.5399,-0.5398,-0.5398,-0.5372,-0.5372,-0.5372,0,0,0,0,0,0,-0.5466,-0.5464,-0.5442,-0.5451,-0.5448,-0.544,-0.5435,-0.5433,-0.5429,-0.5419,-0.5418,-0.5426,-0.541,-0.5407,-0.5398,-0.5395,-0.5398,-0.5397,-0.5372,-0.5372,-0.5372,-0.5375,0,0,0,0,0,0,-0.5467,-0.5464,-0.5461,-0.5451,-0.5448,-0.5435,-0.5434,-0.5433,-0.5428,-0.5428,-0.5417,-0.5415,-0.541,-0.5399,-0.5397,-0.5394,-0.5396,-0.5372,-0.5372,-0.5372,-0.5375,-0.5375,-0.5375,0,0,0,0,0,-0.5468,-0.5462,-0.5461,-0.5459,-0.5444,-0.5435,-0.5433,-0.5427,-0.5428,-0.5424,-0.5418,-0.5415,-0.5396,-0.5398,-0.5396,-0.5392,-0.5373,-0.5372,-0.5372,-0.5375,-0.5375,-0.5375,0,0,0,0,0,0,-0.5472,-0.5461,-0.5459,-0.545,-0.5444,-0.5434,-0.5429,-0.5427,-0.5419,-0.5419,-0.5412,-0.541,-0.5401,-0.5396,-0.5399,-0.5384,-0.5384,-0.5383,-0.5388,-0.5387,-0.5387,-0.5388,-0.5396,0,0,0,0,0,-0.5471,-0.5465,-0.5456,-0.5449,-0.5445,-0.5438,-0.5434,-0.543,-0.5423,-0.5419,-0.5412,-0.5405,-0.5397,-0.5392,-0.5384,-0.5375,-0.5372,-0.5371,-0.5371,-0.5371,-0.537,-0.5365,-0.5364,-0.5371,-0.5371,-0.5371,0,0,-0.5471,-0.5464,-0.546,-0.5449,-0.5444,-0.5437,-0.5436,-0.5428,-0.5423,-0.5418,-0.5409,-0.5404,-0.5395,-0.5385,-0.5381,-0.538,-0.5368,-0.537,-0.537,-0.5369,-0.5364,-0.5364,-0.5363,-0.537,-0.537,-0.537,0,0,-0.5466,-0.546,-0.5454,-0.5448,-0.544,-0.5435,-0.5434,-0.5424,-0.5421,-0.5412,-0.5408,-0.5401,-0.5388,-0.5382,-0.5377,-0.537,-0.5368,-0.5368,-0.5367,-0.5362,-0.5361,-0.5361,-0.5359,-0.5358,-0.5367,-0.5367,-0.5367,0,-0.5466,-0.5456,-0.5451,-0.5444,-0.5439,-0.5435,-0.5428,-0.5423,-0.5412,-0.5409,-0.5409,-0.5393,-0.5386,-0.5375,-0.5374,-0.537,-0.5368,-0.5369,-0.5362,-0.5362,-0.5361,-0.5359,-0.5358,-0.5367,-0.5367,-0.5367,-0.5367,0,-0.5457,-0.545,-0.5445,-0.5436,-0.5431,-0.5424,-0.5417,-0.5413,-0.541,-0.5405,-0.5396,-0.5388,-0.5379,-0.5376,-0.5372,-0.5364,-0.5365,-0.5364,-0.5364,-0.5361,-0.5358,-0.5357,-0.5368,-0.5368,-0.5368,-0.5368,0,0,-0.5453,-0.5441,-0.544,-0.5435,-0.5426,-0.542,-0.5413,-0.5405,-0.5401,-0.5394,-0.5388,-0.5377,-0.5376,-0.537,-0.5366,-0.5362,-0.5358,-0.5361,-0.5361,-0.5361,-0.5349,-0.5349,-0.5348,-0.5356,-0.5356,-0.5356,-0.5349,0,-0.5447,-0.5435,-0.543,-0.542,-0.5414,-0.541,-0.5404,-0.5397,-0.5393,-0.5386,-0.5381,-0.5374,-0.5373,-0.537,-0.5365,-0.5359,-0.5355,-0.536,-0.535,-0.5349,-0.5352,-0.5347,-0.5348,-0.5342,-0.5348,-0.5348,-0.5348,0,-0.5438,-0.5432,-0.5421,-0.5413,-0.541,-0.5405,-0.5397,-0.5391,-0.5383,-0.538,-0.5375,-0.5371,-0.5363,-0.5364,-0.5354,-0.5357,-0.5353,-0.5349,-0.5349,-0.5347,-0.5348,-0.5346,-0.5341,-0.534,-0.5347,-0.5347,-0.5347,0,-0.5437,-0.5425,-0.5418,-0.5414,-0.5404,-0.5401,-0.5396,-0.5389,-0.5384,-0.5377,-0.5374,-0.5366,-0.5362,-0.5355,-0.535,-0.5351,-0.534,-0.534,-0.5337,-0.5337,-0.5334,-0.5334,-0.5328,-0.5332,-0.5332,-0.5332,-0.5332,0,-0.5431,-0.5424,-0.5417,-0.5412,-0.5405,-0.54,-0.5393,-0.5388,-0.5382,-0.5376,-0.5372,-0.5366,-0.5359,-0.5353,-0.5348,-0.534,-0.5338,-0.5335,-0.5334,-0.5335,-0.5336,-0.5332,-0.5333,-0.5331,-0.5331,-0.5332,-0.5332,0,-0.5428,-0.5423,-0.5414,-0.5405,-0.5403,-0.5398,-0.5391,-0.5386,-0.5382,-0.5374,-0.5372,-0.5365,-0.5357,-0.5351,-0.534,-0.5337,-0.5329,-0.5328,-0.5332,-0.5331,-0.5328,-0.5328,-0.5319,-0.5318,-0.5322,-0.5322,-0.5322,0,-0.5424,-0.5419,-0.541,-0.5407,-0.5402,-0.5396,-0.5391,-0.5386,-0.5381,-0.5373,-0.5369,-0.5361,-0.5354,-0.5342,-0.5336,-0.5328,-0.5326,-0.5324,-0.5325,-0.5327,-0.5326,-0.5326,-0.5326,-0.5323,-0.5323,-0.5323,-0.5323,0,-0.5418,-0.5416,-0.541,-0.5402,-0.5397,-0.5391,-0.5385,-0.5382,-0.5376,-0.5371,-0.5363,-0.5358,-0.5348,-0.534,-0.5331,-0.5327,-0.5324,-0.5323,-0.5322,-0.5323,-0.5326,-0.5324,-0.5331,-0.5323,-0.5323,-0.5323,-0.5323,-0.5323,-0.5415,-0.541,-0.5403,-0.5397,-0.5392,-0.5386,-0.5381,-0.5376,-0.537,-0.5362,-0.5359,-0.5351,-0.5344,-0.5332,-0.5328,-0.5321,-0.5321,-0.5319,-0.5319,-0.5318,-0.5319,-0.5327,-0.532,-0.532,-0.532,-0.532,-0.532,0,-0.5408,-0.5404,-0.5398,-0.539,-0.5384,-0.5383,-0.5376,-0.5372,-0.5365,-0.5359,-0.5353,-0.5344,-0.5336,-0.533,-0.5322,-0.5318,-0.5316,-0.5316,-0.5316,-0.5315,-0.5319,-0.5321,-0.5317,-0.5317,-0.5317,-0.5317,-0.5317,-0.5317,-0.5404,-0.5397,-0.5394,-0.5384,-0.538,-0.5372,-0.5369,-0.5364,-0.5359,-0.5349,-0.5343,-0.5339,-0.5333,-0.5324,-0.5317,-0.5316,-0.5313,-0.5313,-0.5311,-0.5314,-0.5315,-0.5315,-0.5317,-0.5312,-0.5312,-0.5307,-0.5307,-0.5307]},{"header":{"parameterUnit":"m.s-1","parameterCategory":1,"la1":30.2991,"la2":30.254,"lo1":-89.0895,"lo2":-89.0444,"dy":0.0017,"dx":0.0017,"nx":28,"ny":28,"refTime":"2024-06-13T09:00:00:Z","depth":0,"parameterNumber":3,"parameterNumberName":"V-component_of_WINDS"},"data":[0,0,0,0,0,0,0,0,0,0,0,0,0,0,0,0,0,0,0,0,0,0,0,0,0,0,0,0,0,0,0,0,0,0,0,0,0,0,0,0,0,0,0,0,0,0,0,0,0,0,0,0,0,0,0,0,0,0,2.6586,2.6586,0,2.655,2.6549,2.6549,2.6542,2.6542,2.6542,2.6543,2.65,2.6498,2.6497,0,0,0,0,0,0,0,0,0,0,0,0,0,2.6645,2.6644,2.6586,2.6586,2.6585,2.655,2.6549,2.6549,2.6542,2.6542,2.6542,2.6543,2.65,2.6498,2.6497,0,0,0,0,0,0,0,0,0,0,0,0,0,2.6615,2.6644,2.6586,2.6578,2.6576,2.655,2.6549,2.6549,2.6542,2.6542,2.6543,2.6543,2.6501,2.6498,2.6496,2.6474,0,0,2.649,2.6489,0,0,0,0,0,0,0,0,2.6617,2.6613,2.6579,2.6578,2.6577,2.6551,2.6554,2.6523,2.6542,2.6555,2.6543,2.6543,2.6516,2.6512,2.6504,2.6472,2.647,2.649,2.6488,2.6487,2.6487,0,0,0,0,0,0,0,2.6619,2.6614,2.6571,2.6579,2.6577,2.6574,2.657,2.6548,2.6533,2.6554,2.6553,2.6549,2.6515,2.6507,2.6503,2.6469,2.649,2.6488,2.6486,2.6486,2.6417,2.6417,0,0,0,0,0,0,2.6623,2.6616,2.6573,2.657,2.6598,2.6573,2.6568,2.6559,2.6533,2.653,2.6549,2.6549,2.651,2.6506,2.6502,2.6474,2.6487,2.6485,2.6484,2.6418,2.6417,2.6417,0,0,0,0,0,0,2.6624,2.6619,2.6574,2.6593,2.6587,2.6571,2.656,2.6558,2.6549,2.653,2.6526,2.6543,2.651,2.6505,2.6482,2.6473,2.6484,2.6482,2.6419,2.6418,2.6417,2.6419,0,0,0,0,0,0,2.6626,2.662,2.6612,2.6593,2.6586,2.6556,2.656,2.6557,2.6546,2.6546,2.6523,2.652,2.651,2.6485,2.6479,2.647,2.6481,2.6419,2.6418,2.6417,2.642,2.6419,2.6417,0,0,0,0,0,2.6628,2.6613,2.6612,2.6606,2.6577,2.6555,2.6551,2.6542,2.6545,2.6537,2.6525,2.6521,2.6475,2.6482,2.6476,2.6466,2.642,2.6418,2.6417,2.642,2.6419,2.6417,0,0,0,0,0,0,2.6628,2.661,2.6609,2.6587,2.6573,2.6554,2.6543,2.654,2.6524,2.6524,2.6511,2.6506,2.6484,2.6472,2.6481,2.6444,2.6447,2.6445,2.6452,2.645,2.6449,2.6452,2.6479,0,0,0,0,0,2.6627,2.6613,2.6596,2.6578,2.6572,2.6559,2.6549,2.6544,2.6528,2.6521,2.6507,2.6491,2.6473,2.6461,2.6443,2.6418,2.6413,2.6408,2.6407,2.6407,2.6404,2.6391,2.6388,2.6413,2.6413,2.6413,0,0,2.6621,2.6609,2.6601,2.6578,2.6567,2.6552,2.6554,2.6537,2.6525,2.6518,2.6496,2.6485,2.6466,2.6442,2.6431,2.6432,2.6397,2.6405,2.6405,2.6403,2.6389,2.6387,2.6385,2.6412,2.6412,2.6412,0,0,2.6604,2.6594,2.6578,2.6568,2.6551,2.6543,2.6539,2.6521,2.6515,2.6493,2.6488,2.6472,2.6441,2.6428,2.6417,2.6397,2.6393,2.6391,2.6385,2.6372,2.637,2.6368,2.6361,2.6359,2.6389,2.6389,2.6389,0,2.6599,2.6577,2.657,2.6554,2.6544,2.654,2.6524,2.6513,2.6491,2.6483,2.6486,2.6448,2.6434,2.6408,2.6403,2.6395,2.6389,2.6393,2.6371,2.6369,2.6368,2.636,2.6358,2.6389,2.6389,2.6389,2.6389,0,2.6572,2.6557,2.6546,2.6527,2.6516,2.65,2.649,2.6479,2.6475,2.6466,2.6443,2.6428,2.6407,2.64,2.6395,2.6373,2.6374,2.6374,2.6378,2.6365,2.6358,2.6356,2.6389,2.6389,2.6389,2.6389,0,0,2.6552,2.6532,2.6528,2.652,2.6502,2.6489,2.6473,2.6455,2.6446,2.6431,2.6417,2.6392,2.6392,2.638,2.6373,2.6362,2.6347,2.6363,2.6362,2.636,2.6322,2.6322,2.6319,2.6344,2.6344,2.6343,2.6323,0,2.6532,2.6505,2.6499,2.6475,2.6461,2.6457,2.6443,2.643,2.6421,2.6407,2.6397,2.638,2.6381,2.6374,2.6363,2.6351,2.6339,2.6352,2.6329,2.6329,2.6334,2.6315,2.6315,2.6297,2.6321,2.632,2.632,0,2.6505,2.6493,2.6468,2.6454,2.6447,2.6435,2.6418,2.6405,2.639,2.6385,2.6373,2.6367,2.6349,2.6354,2.6328,2.6338,2.6328,2.6321,2.632,2.6317,2.6323,2.6311,2.629,2.6288,2.6315,2.6316,2.6316,0,2.6493,2.647,2.6452,2.6445,2.6428,2.642,2.6412,2.6397,2.6387,2.6373,2.6366,2.6348,2.6338,2.6324,2.6314,2.6319,2.6289,2.6294,2.6283,2.6283,2.6276,2.6277,2.6253,2.6271,2.6271,2.6271,2.6271,0,2.6472,2.6457,2.6447,2.6436,2.6419,2.6412,2.6394,2.6386,2.6374,2.636,2.6356,2.6343,2.633,2.6315,2.6307,2.6287,2.6282,2.6277,2.6275,2.6277,2.6278,2.627,2.627,2.627,2.627,2.6271,2.6271,0,2.6455,2.6448,2.6429,2.6415,2.6411,2.6399,2.6387,2.6375,2.6368,2.6351,2.6346,2.6333,2.6316,2.6305,2.6281,2.6276,2.6254,2.6252,2.6259,2.6258,2.6249,2.625,2.6219,2.6214,2.6235,2.6235,2.6235,0,2.6442,2.643,2.6416,2.6408,2.6401,2.6387,2.6378,2.637,2.636,2.6344,2.6334,2.6317,2.6302,2.6274,2.6262,2.6244,2.6242,2.6232,2.6239,2.6242,2.6241,2.6242,2.6241,2.6231,2.6231,2.623,2.623,0,2.6418,2.6416,2.6404,2.639,2.638,2.6368,2.6357,2.635,2.634,2.6329,2.6313,2.6302,2.628,2.6262,2.6244,2.6234,2.623,2.6229,2.6225,2.6227,2.6232,2.6229,2.6256,2.6229,2.6229,2.6229,2.6229,2.6229,2.6402,2.6393,2.6382,2.6368,2.636,2.6349,2.6338,2.6331,2.6317,2.63,2.6296,2.6278,2.6264,2.624,2.623,2.6215,2.6216,2.6211,2.621,2.6208,2.6208,2.6235,2.6211,2.6211,2.6211,2.6211,2.6211,0,2.6379,2.6372,2.636,2.6346,2.6335,2.6335,2.6323,2.6313,2.6299,2.6287,2.6274,2.6254,2.6238,2.6225,2.6208,2.6198,2.6196,2.6194,2.6194,2.6192,2.6208,2.6213,2.6196,2.6196,2.6196,2.6196,2.6196,2.6196,2.6365,2.6349,2.6346,2.6325,2.6318,2.6302,2.6295,2.6285,2.6276,2.6256,2.6243,2.6235,2.6223,2.6205,2.619,2.6186,2.618,2.6178,2.6174,2.6189,2.6191,2.6192,2.6197,2.6177,2.6177,2.6159,2.6159,2.6158]}]]